Change the Weather History Date:

Wednesday, January 1, 2014

  Actual Average Record
Temperature  
Mean Temperature 55 °F -  
Max Temperature 64 °F 65 °F 82 °F (2012)
Min Temperature 46 °F 46 °F 38 °F (1952)
Degree Days  
Heating Degree Days 10    
Growing Degree Days 5 (Base 50)    
Moisture  
Dew Point 47 °F    
Average Humidity 81    
Maximum Humidity 100    
Minimum Humidity 37    
Precipitation  
Precipitation 0.01 in - - ()
Sea Level Pressure  
Sea Level Pressure 30.10 in    
Wind  
Wind Speed 1 mph (West)    
Max Wind Speed 9 mph    
Max Gust Speed -    
Visibility 3 miles    
Events Fog    
Averages and records for this station are not official NWS values.
T = Trace of Precipitation, MM = Missing Value Source: NWS Daily Summary

Daily Weather History Graph

Daily Weather History Graph

Search for Another Location

Airport or City:

Trip Planner

Search our weather history database for the weather conditions in past years. The results will help you decide how hot, cold, wet, or windy it might be!

Date:

Astronomy

Jan. 01, 2014 Rise Set
Actual Time 6:58 AM PST 4:55 PM PST
Civil Twilight 6:31 AM PST 5:23 PM PST
Nautical Twilight 5:59 AM PST 5:54 PM PST
Astronomical Twilight 5:29 AM PST 6:24 PM PST
Moon 6:56 AM PST (1/1) 5:42 PM PST (1/1)
Length of Visible Light 10h 52m
Length of Day
9h 56m
New Moon, 0% of the Moon is Illuminated
Jan 1
New Moon
Jan 7
First Quarter
Jan 15
Full
Jan 23
Last Quarter
Jan 30
New

Hourly Weather History & Observations

Time (PST) Temp. Dew Point Humidity Pressure Visibility Wind Dir Wind Speed Gust Speed Precip Events Conditions
12:00 AM 51.8 °F 48.2 °F 88% 30.12 in 5.0 mi Calm Calm - N/A   Scattered Clouds
12:11 AM 51.8 °F 48.2 °F 88% 30.12 in 5.0 mi Calm Calm - N/A   Mostly Cloudy
12:53 AM 52.0 °F 48.9 °F 89% 30.12 in 5.0 mi Calm Calm - N/A   Overcast
1:27 AM 53.6 °F 51.8 °F 94% 30.12 in 2.0 mi Calm Calm - N/A   Overcast
1:38 AM 53.6 °F 51.8 °F 94% 30.12 in 1.2 mi Calm Calm - N/A   Overcast
1:53 AM 54.0 °F 53.1 °F 97% 30.12 in 1.0 mi Calm Calm - N/A   Mist
2:00 AM 53.6 °F 53.6 °F 100% 30.12 in 0.8 mi Calm Calm - N/A   Mist
2:53 AM 53.1 °F 52.0 °F 96% 30.12 in 0.2 mi Calm Calm - N/A Fog Fog
3:53 AM 50.0 °F 48.9 °F 96% 30.10 in 0.2 mi Calm Calm - N/A Fog Fog
4:49 AM 48.2 °F 48.2 °F 100% 30.10 in 1.0 mi Calm Calm - N/A   Overcast
4:53 AM 48.9 °F 46.9 °F 93% 30.10 in 1.0 mi Calm Calm - N/A   Mostly Cloudy
5:00 AM 48.2 °F 46.4 °F 93% 30.10 in 0.2 mi Calm Calm - N/A Fog Fog
5:53 AM 46.9 °F 46.9 °F 100% 30.10 in 0.2 mi Calm Calm - N/A Fog Fog
6:53 AM 46.0 °F 44.1 °F 93% 30.11 in 0.5 mi Calm Calm - N/A Fog Fog
7:36 AM 46.4 °F 44.6 °F 93% 30.12 in 0.2 mi Calm Calm - 0.01 in Fog Fog
7:51 AM 46.4 °F 44.6 °F 93% 30.12 in 1.2 mi Calm Calm - 0.01 in   Scattered Clouds
7:53 AM 46.9 °F 45.0 °F 93% 30.12 in 1.5 mi Calm Calm - 0.01 in   Partly Cloudy
8:08 AM 48.2 °F 46.4 °F 93% 30.12 in 2.5 mi Calm Calm - N/A   Clear
8:28 AM 50.0 °F 44.6 °F 82% 30.12 in 3.0 mi Calm Calm - N/A   Haze
8:53 AM 51.1 °F 42.1 °F 71% 30.14 in 4.0 mi Calm Calm - N/A   Haze
9:53 AM 55.9 °F 42.1 °F 60% 30.15 in 4.0 mi Calm Calm - N/A   Haze
10:53 AM 61.0 °F 39.9 °F 46% 30.12 in 5.0 mi Calm Calm - N/A   Haze
11:53 AM 64.9 °F 37.9 °F 37% 30.09 in 6.0 mi Variable 3.5 mph - N/A   Haze
12:53 PM 62.1 °F 51.1 °F 67% 30.08 in 5.0 mi West 9.2 mph - N/A   Haze
1:53 PM 62.1 °F 51.1 °F 67% 30.06 in 4.0 mi West 5.8 mph - N/A   Haze
2:53 PM 64.9 °F 39.0 °F 39% 30.06 in 7.0 mi West 3.5 mph - N/A   Clear
3:53 PM 64.0 °F 45.0 °F 50% 30.05 in 7.0 mi West 4.6 mph - N/A   Clear
4:53 PM 62.1 °F 45.0 °F 53% 30.05 in 6.0 mi West 4.6 mph - N/A   Haze
5:53 PM 59.0 °F 48.9 °F 69% 30.06 in 6.0 mi WNW 3.5 mph - N/A   Haze
6:53 PM 57.0 °F 51.1 °F 81% 30.07 in 5.0 mi Calm Calm - N/A   Haze
7:53 PM 57.0 °F 52.0 °F 83% 30.08 in 6.0 mi Calm Calm - N/A   Haze
8:53 PM 55.9 °F 52.0 °F 87% 30.09 in 6.0 mi Calm Calm - N/A   Clear
9:53 PM 54.0 °F 51.1 °F 90% 30.09 in 5.0 mi Calm Calm - N/A   Clear
10:53 PM 53.1 °F 50.0 °F 89% 30.08 in 6.0 mi Calm Calm - N/A   Clear
11:53 PM 53.1 °F 48.9 °F 86% 30.09 in 6.0 mi Calm Calm - N/A   Clear